Tracking 35331 objects as of 15-Sep-2026
HD Live streaming from Space Station
objects crossing your sky now

IRIDIUM 33 DEB


IRIDIUM 33 DEB is no longer on orbit


NORAD ID: 34647
Int'l Code: 1997-051JY
Launch date: September 14, 1997
Source: United States (US)
Launch site: TYURATAM MISSILE AND SPACE COMPLEX (TTMTR)
Decay date: 2009-04-21

Note: This is SATELLITE DEBRIS
Your satellite tracking list
Your tracking list is empty




NASA's NSSDC Master Catalog

Two Line Element Set (TLE):
1 34647U 97051JY  09111.40244936  .00960443  31607-3  50000-2 0  9993
2 34647 086.8016 095.1236 0094853 061.7656 299.3400 15.74462180  5494
Source of the keplerian elements: AFSPC